Location: Barnston
(51.8500°N, 0.4000°E)
Time: 19:41:55
(UTC+00:00)

SL-16 R/B - Pass Details

Date: 26 September 2023
Orbit: 842 x 845 km, 71.0° (Epoch: 09 December)

Event Time Altitude Azimuth Distance (km) Brightness Sun altitude
Rises 03:15:12 0° 327° (NNW) 3,414 5.4 -23.7°
Reaches altitude 10° 03:17:41 10° 324° (NW) 2,476 4.6 -23.3°
Maximum altitude 03:23:15 59° 246° (WSW) 975 2.1 -22.6°
Drops below altitude 10° 03:28:47 10° 169° (SSE) 2,461 4.4 -21.8°
Sets 03:31:15 0° 165° (SSE) 3,393 5.2 -21.5°
